When you browse on this site, cookies collect data to enhance your experience and personalize the content and advertising you see.
Visit our Privacy Policy to learn more. By continuing to use the site, you agree to this use of cookies and data.
  • In Hungary
  • List of Countries
  • For 7 days
  • Water Temperature
  • Satellite Maps
  • Weather Map
  • News
  • Weather Widgets
  • user-avatar
    Login

    Hourly Weather Aseb

    Today, 17 December, Monday

    Time Temperature Precipitation Wind Pressure Humidity
    00:00 +28°C° 0 mm 8 mps 760 mmHg 68%
    01:00 +28°C° 0 mm 8 mps 759 mmHg 69%
    02:00 +28°C° 0 mm 8 mps 759 mmHg 71%
    03:00 +28°C° 0 mm 7 mps 759 mmHg 72%
    04:00 +27°C° 0 mm 7 mps 759 mmHg 73%
    05:00 +27°C° 0 mm 7 mps 759 mmHg 74%
    06:00 +27°C° 0 mm 7 mps 760 mmHg 76%
    07:00 +28°C° 0 mm 8 mps 760 mmHg 70%
    08:00 +29°C° 0 mm 9 mps 760 mmHg 65%
    09:00 +31°C° 0 mm 10 mps 760 mmHg 59%
    10:00 +32°C° 0 mm 10 mps 760 mmHg 55%
    11:00 +34°C° 0 mm 10 mps 759 mmHg 50%
    12:00 +36°C° 0 mm 10 mps 759 mmHg 45%
    13:00 +36°C° 0 mm 10 mps 758 mmHg 44%
    14:00 +36°C° 0 mm 10 mps 758 mmHg 44%
    15:00 +36°C° 0 mm 11 mps 758 mmHg 44%
    16:00 +34°C° 0 mm 11 mps 758 mmHg 48%
    17:00 +33°C° 0 mm 11 mps 758 mmHg 51%
    18:00 +32°C° 0 mm 10 mps 758 mmHg 55%
    19:00 +31°C° 0 mm 10 mps 758 mmHg 57%
    20:00 +29°C° 0 mm 10 mps 759 mmHg 60%
    21:00 +29°C° 0 mm 10 mps 759 mmHg 62%
    22:00 +29°C° 0 mm 10 mps 759 mmHg 63%
    23:00 +28°C° 0 mm 10 mps 759 mmHg 65%

    Tomorrow, 18 December, Tuesday

    Time Temperature Precipitation Wind Pressure Humidity
    00:00 +28°C° 0 mm 9 mps 759 mmHg 66%
    01:00 +28°C° 0 mm 9 mps 759 mmHg 67%
    02:00 +27°C° 0 mm 9 mps 759 mmHg 68%
    03:00 +27°C° 0 mm 8 mps 758 mmHg 68%
    04:00 +27°C° 0 mm 8 mps 759 mmHg 69%
    05:00 +27°C° 0 mm 8 mps 759 mmHg 70%
    06:00 +26°C° 0 mm 8 mps 759 mmHg 71%
    07:00 +28°C° 0 mm 8 mps 760 mmHg 65%
    08:00 +29°C° 0 mm 9 mps 760 mmHg 59%
    09:00 +31°C° 0 mm 9 mps 761 mmHg 54%
    10:00 +32°C° 0 mm 9 mps 760 mmHg 49%
    11:00 +33°C° 0 mm 9 mps 760 mmHg 45%
    12:00 +35°C° 0 mm 9 mps 760 mmHg 41%
    13:00 +35°C° 0 mm 9 mps 759 mmHg 40%
    14:00 +35°C° 0 mm 9 mps 758 mmHg 40%
    15:00 +35°C° 0 mm 9 mps 757 mmHg 40%
    16:00 +34°C° 0 mm 9 mps 758 mmHg 43%
    17:00 +33°C° 0 mm 9 mps 758 mmHg 46%
    18:00 +32°C° 0 mm 9 mps 758 mmHg 49%
    19:00 +31°C° 0 mm 9 mps 758 mmHg 52%
    20:00 +31°C° 0 mm 9 mps 759 mmHg 54%
    21:00 +29°C° 0 mm 9 mps 759 mmHg 57%
    22:00 +29°C° 0 mm 8 mps 759 mmHg 59%
    23:00 +29°C° 0 mm 8 mps 759 mmHg 60%

    Day after tomorrow, 19 December, Wednesday

    Time Temperature Precipitation Wind Pressure Humidity
    00:00 +28°C° 0 mm 8 mps 759 mmHg 62%
    01:00 +28°C° 0 mm 8 mps 759 mmHg 63%
    02:00 +28°C° 0 mm 7 mps 759 mmHg 65%
    03:00 +27°C° 0 mm 7 mps 758 mmHg 67%
    04:00 +27°C° 0 mm 7 mps 758 mmHg 68%
    05:00 +27°C° 0 mm 7 mps 758 mmHg 69%
    06:00 +27°C° 0 mm 6 mps 759 mmHg 71%
    07:00 +28°C° 0 mm 6 mps 759 mmHg 63%
    08:00 +29°C° 0 mm 7 mps 760 mmHg 56%
    09:00 +30°C° 0 mm 7 mps 760 mmHg 48%
    10:00 +33°C° 0 mm 6 mps 760 mmHg 42%
    11:00 +34°C° 0 mm 6 mps 760 mmHg 37%
    12:00 +36°C° 0 mm 6 mps 759 mmHg 31%
    13:00 +36°C° 0 mm 6 mps 758 mmHg 30%
    14:00 +36°C° 0 mm 6 mps 758 mmHg 29%
    15:00 +38°C° 0 mm 6 mps 757 mmHg 27%
    16:00 +36°C° 0 mm 7 mps 757 mmHg 31%
    17:00 +34°C° 0 mm 7 mps 757 mmHg 34%
    18:00 +33°C° 0 mm 8 mps 758 mmHg 38%
    19:00 +33°C° 0 mm 8 mps 758 mmHg 40%
    20:00 +32°C° 0 mm 8 mps 759 mmHg 42%
    21:00 +31°C° 0 mm 8 mps 759 mmHg 44%
    22:00 +31°C° 0 mm 8 mps 759 mmHg 46%
    23:00 +29°C° 0 mm 8 mps 759 mmHg 48%

    20 December, Thursday

    Time Temperature Precipitation Wind Pressure Humidity
    00:00 +29°C° 0 mm 8 mps 759 mmHg 50%
    01:00 +28°C° 0 mm 7 mps 758 mmHg 52%
    02:00 +28°C° 0 mm 7 mps 758 mmHg 54%
    03:00 +28°C° 0 mm 6 mps 758 mmHg 56%
    04:00 +28°C° 0 mm 6 mps 758 mmHg 56%
    05:00 +27°C° 0 mm 6 mps 758 mmHg 57%
    06:00 +27°C° 0 mm 5 mps 759 mmHg 58%
    07:00 +28°C° 0 mm 6 mps 759 mmHg 53%
    08:00 +30°C° 0 mm 6 mps 760 mmHg 49%
    09:00 +32°C° 0 mm 6 mps 760 mmHg 44%
    10:00 +33°C° 0 mm 6 mps 760 mmHg 41%
    11:00 +34°C° 0 mm 6 mps 759 mmHg 38%
    12:00 +35°C° 0 mm 6 mps 759 mmHg 34%
    13:00 +36°C° 0 mm 7 mps 758 mmHg 35%
    14:00 +36°C° 0 mm 7 mps 757 mmHg 36%
    15:00 +36°C° 0 mm 7 mps 757 mmHg 37%
    16:00 +35°C° 0 mm 8 mps 757 mmHg 42%
    17:00 +34°C° 0 mm 8 mps 757 mmHg 48%
    18:00 +32°C° 0 mm 8 mps 757 mmHg 53%
    19:00 +32°C° 0 mm 8 mps 758 mmHg 54%
    20:00 +30°C° 0 mm 7 mps 758 mmHg 56%
    21:00 +30°C° 0 mm 7 mps 759 mmHg 57%
    22:00 +29°C° 0 mm 7 mps 759 mmHg 60%
    23:00 +29°C° 0 mm 7 mps 758 mmHg 63%

    21 December, Friday

    Time Temperature Precipitation Wind Pressure Humidity
    00:00 +29°C° 0 mm 7 mps 758 mmHg 66%
    01:00 +28°C° 0 mm 7 mps 758 mmHg 69%
    02:00 +28°C° 0 mm 7 mps 758 mmHg 71%
    03:00 +28°C° 0 mm 6 mps 758 mmHg 74%
    04:00 +27°C° 0 mm 6 mps 758 mmHg 75%
    05:00 +27°C° 0 mm 5 mps 758 mmHg 77%
    06:00 +27°C° 0 mm 5 mps 759 mmHg 79%
    07:00 +28°C° 0 mm 5 mps 759 mmHg 73%
    08:00 +29°C° 0 mm 5 mps 760 mmHg 68%
    09:00 +30°C° 0 mm 5 mps 760 mmHg 62%
    10:00 +32°C° 0 mm 5 mps 760 mmHg 56%
    11:00 +33°C° 0 mm 5 mps 759 mmHg 50%
    12:00 +34°C° 0 mm 5 mps 759 mmHg 44%
    13:00 +35°C° 0 mm 5 mps 758 mmHg 44%
    14:00 +35°C° 0 mm 5 mps 757 mmHg 43%
    15:00 +35°C° 0 mm 6 mps 757 mmHg 43%
    16:00 +34°C° 0 mm 6 mps 757 mmHg 47%
    17:00 +33°C° 0 mm 6 mps 757 mmHg 52%
    18:00 +32°C° 0 mm 6 mps 757 mmHg 57%
    19:00 +30°C° 0 mm 6 mps 757 mmHg 61%
    20:00 +30°C° 0 mm 6 mps 758 mmHg 66%
    21:00 +29°C° 0 mm 6 mps 758 mmHg 70%
    22:00 +29°C° 0 mm 6 mps 758 mmHg 72%
    23:00 +28°C° 0 mm 6 mps 758 mmHg 74%

    22 December, Saturday

    Time Temperature Precipitation Wind Pressure Humidity
    00:00 +28°C° 0 mm 6 mps 758 mmHg 77%
    01:00 +28°C° 0 mm 6 mps 758 mmHg 78%
    02:00 +27°C° 0 mm 6 mps 757 mmHg 79%
    03:00 +27°C° 0 mm 6 mps 757 mmHg 79%
    04:00 +27°C° 0 mm 6 mps 758 mmHg 80%
    05:00 +27°C° 0 mm 5 mps 758 mmHg 81%
    06:00 +27°C° 0 mm 5 mps 758 mmHg 82%
    07:00 +28°C° 0 mm 6 mps 759 mmHg 76%
    08:00 +29°C° 0 mm 6 mps 759 mmHg 70%
    09:00 +30°C° 0 mm 6 mps 760 mmHg 64%
    10:00 +32°C° 0 mm 7 mps 759 mmHg 58%
    11:00 +33°C° 0 mm 7 mps 759 mmHg 52%
    12:00 +34°C° 0 mm 7 mps 758 mmHg 46%
    13:00 +34°C° 0 mm 7 mps 758 mmHg 46%
    14:00 +35°C° 0 mm 8 mps 757 mmHg 46%
    15:00 +35°C° 0 mm 8 mps 756 mmHg 46%
    16:00 +34°C° 0 mm 8 mps 757 mmHg 50%
    17:00 +33°C° 0 mm 9 mps 757 mmHg 55%
    18:00 +31°C° 0 mm 9 mps 757 mmHg 60%
    19:00 +31°C° 0 mm 9 mps 757 mmHg 62%
    20:00 +29°C° 0 mm 9 mps 758 mmHg 65%
    21:00 +29°C° 0 mm 8 mps 758 mmHg 67%
    22:00 +29°C° 0 mm 8 mps 758 mmHg 68%
    23:00 +28°C° 0 mm 8 mps 758 mmHg 69%
    Show more